sat.trackr.live / text

‹ back to catalog

STARLINK-32575

NORAD 62173 · 2024-225L

PAYLOAD ACTIVE UNKNOWN

§ Identity

Operator
Country
US
Launch date
2024-11-30
Launch site
AFWTR
Launch vehicle
Mass (kg)
RCS (m²)

Purposes: comms

External: N2YO · Heavens-Above · Gunter

§ Orbital elements

Epoch: 2026-09-21T16:45:08.346528Z

Period
94.14 min
Inclination
70.0020°
Eccentricity
0.0003314
Mean motion
15.29581708 rev/d
Perigee alt
474.8 km
Apogee alt
479.3 km
Semi-major
6,855.2 km
B*
3.3332e-4
RAAN
17.9133°
Arg perigee
265.3285°
Mean anomaly
94.7512°
Rev number
9,954

§ Raw data

STARLINK-325751 62173U 24225L   26264.69801327  .00009467  00000+0  33332-3 0  99922 62173  70.0020  17.9133 0003314 265.3285  94.7512 15.29581708 99547

JSON: /api/v1/satellites/62173 · /tle

For live sub-satellite position, see the globe view (requires WebGL).

§ Visibility from observer

Set your observer location to see the next 7 days of passes ≥ 10°. The values pass through the URL so the page stays shareable.

No JS? Fill the form by hand. The geolocation button needs JavaScript.